sat.trackr.live / text

‹ back to catalog

STARLINK-3204

NORAD 49759 · 2021-115AM

PAYLOAD ACTIVE UNKNOWN

§ Identity

Operator
Country
US
Launch date
2021-12-02
Launch site
AFETR
Launch vehicle
Mass (kg)
RCS (m²)

Purposes: comms

External: N2YO · Heavens-Above · Gunter

§ Orbital elements

Epoch: 2026-09-20T04:28:33.216384Z

Period
93.85 min
Inclination
53.1612°
Eccentricity
0.0001360
Mean motion
15.34388262 rev/d
Perigee alt
461.8 km
Apogee alt
463.7 km
Semi-major
6,840.9 km
B*
3.1230e-5
RAAN
330.8367°
Arg perigee
86.0762°
Mean anomaly
274.0396°
Rev number
26,524

§ Raw data

STARLINK-32041 49759U 21115AM  26263.18649556  .00000679  00000+0  31230-4 0  99912 49759  53.1612 330.8367 0001360  86.0762 274.0396 15.34388262265245

JSON: /api/v1/satellites/49759 · /tle

For live sub-satellite position, see the globe view (requires WebGL).

§ Visibility from observer

Set your observer location to see the next 7 days of passes ≥ 10°. The values pass through the URL so the page stays shareable.

No JS? Fill the form by hand. The geolocation button needs JavaScript.